SKYNET 4E

Last updated on Sun Oct 12 2025 00:02:45 GMT+0000 (Coordinated Universal Time)

1 25639U 99009B 25283.48651311 -.00000037 00000+0 00000+0 0 9990 2 25639 11.9145 10.4458 0002947 203.8073 339.0041 1.00273946 48672
UTC large
Height (km)
Speed (km/s)
/
Latitude / Longitude
Inclination (degrees)
Orbital Period (minutes)
Azimuth
Elevation
Range (km)
Doppler Factor

Next 0 passes for location: London (51.5072 / 0.1276)

Sorry there are no passes over London.